Location: Boitzum
(52.1496°N, 9.6943°E)
Time: 21:06:16
(UTC+00:00)

COSMOS 2406 - Pass Details

Date: 13 January 2026
Orbit: 843 x 861 km, 71.0° (Epoch: 16 February)

Event Time Altitude Azimuth Distance (km) Brightness Sun altitude
Exits shadow 05:13:34 12° 339° (NNW) 2,356 5.2 -19.2°
Maximum altitude 05:18:35 41° 48° (NE) 1,226 4.3 -18.5°
Drops below altitude 10° 05:23:59 10° 118° (ESE) 2,493 6.8 -17.7°
Sets 05:26:35 0° 125° (SE) 3,428 7.6 -17.3°
